Kinston, NC

8:13 AM EDT on July 23, 2017 (GMT -0400)
Kinston Regional Jetport / Stallings Field

Weather History for KISO - March, 2014

Change the Weather History Date:

Friday, March 28, 2014

  Actual Average Record
Temperature  
Mean Temperature 56 °F -  
Max Temperature 73 °F 67 °F 84 °F (2007)
Min Temperature 39 °F 46 °F 28 °F (1982)
Degree Days  
Heating Degree Days 9    
Growing Degree Days 6 (Base 50)    
Moisture  
Dew Point 48 °F    
Average Humidity 81    
Maximum Humidity 97    
Minimum Humidity 46    
Precipitation  
Precipitation 0.02 in - - ()
Sea Level Pressure  
Sea Level Pressure 30.24 in    
Wind  
Wind Speed 4 mph (South)    
Max Wind Speed 17 mph    
Max Gust Speed 29 mph    
Visibility 10 miles    
Events Rain    
Averages and records for this station are not official NWS values.
T = Trace of Precipitation, MM = Missing Value Source: NWS Daily Summary

Daily Weather History Graph

Daily Weather History Graph

Search for Another Location

Airport or City:

Trip Planner

Search our weather history database for the weather conditions in past years. The results will help you decide how hot, cold, wet, or windy it might be!

Date:

Astronomy

Mar. 28, 2014 Rise Set
Actual Time 7:02 AM EDT 7:28 PM EDT
Civil Twilight 6:37 AM EDT 7:54 PM EDT
Nautical Twilight 6:07 AM EDT 8:24 PM EDT
Astronomical Twilight 5:37 AM EDT 8:54 PM EDT
Moon 5:27 AM EDT (3/28) 5:26 PM EDT (3/28)
Length of Visible Light 13h 16m
Length of Day
12h 25m
Waning Crescent, 6% of the Moon is Illuminated
Mar 28
Waning Crescent
Mar 30
New
Apr 7
First Quarter
Apr 15
Full
Apr 22
Last Quarter

Hourly Weather History & Observations

Time (EDT) Temp. Windchill Dew Point Humidity Pressure Visibility Wind Dir Wind Speed Gust Speed Precip Events Conditions
12:15 AM 42.1 °F - 34.7 °F 75% 30.34 in 10.0 mi Calm Calm - N/A   Clear
12:35 AM 40.6 °F - 34.5 °F 79% 30.34 in 10.0 mi Calm Calm - N/A   Clear
12:55 AM 39.7 °F - 35.2 °F 84% 30.33 in 10.0 mi Calm Calm - N/A   Scattered Clouds
1:15 AM 40.5 °F - 35.6 °F 83% 30.32 in 10.0 mi Calm Calm - N/A   Scattered Clouds
1:35 AM 40.3 °F - 36.3 °F 86% 30.31 in 10.0 mi Calm Calm - N/A   Mostly Cloudy
1:55 AM 41.0 °F - 35.8 °F 82% 30.30 in 10.0 mi Calm Calm - N/A   Mostly Cloudy
2:15 AM 39.6 °F - 35.6 °F 86% 30.30 in 10.0 mi Calm Calm - N/A   Mostly Cloudy
2:35 AM 41.5 °F - 37.2 °F 85% 30.30 in 10.0 mi Calm Calm - N/A   Mostly Cloudy
2:55 AM 42.8 °F - 37.8 °F 82% 30.30 in 10.0 mi Calm Calm - N/A   Mostly Cloudy
3:15 AM 45.9 °F 43.6 °F 41.7 °F 85% 30.29 in 10.0 mi South 4.6 mph - N/A   Mostly Cloudy
3:35 AM 45.7 °F 44.4 °F 41.4 °F 85% 30.28 in 10.0 mi South 3.5 mph - N/A   Mostly Cloudy
3:55 AM 45.0 °F 43.5 °F 41.4 °F 87% 30.28 in 10.0 mi South 3.5 mph - N/A   Scattered Clouds
4:15 AM 44.2 °F 42.7 °F 41.2 °F 89% 30.28 in 10.0 mi SSE 3.5 mph - N/A   Scattered Clouds
4:35 AM 44.8 °F 42.4 °F 41.9 °F 90% 30.27 in 10.0 mi SSE 4.6 mph - N/A   Clear
4:55 AM 44.8 °F 41.6 °F 43.0 °F 93% 30.27 in 10.0 mi South 5.8 mph - N/A   Clear
5:15 AM 46.9 °F - 44.6 °F 92% 30.26 in 10.0 mi South 5.8 mph - N/A   Clear
5:35 AM 46.9 °F - 44.8 °F 92% 30.27 in 10.0 mi South 5.8 mph - N/A   Clear
5:55 AM 46.9 °F - 45.0 °F 93% 30.27 in 10.0 mi South 5.8 mph - N/A   Clear
6:15 AM 47.7 °F - 45.5 °F 92% 30.26 in 10.0 mi South 5.8 mph - N/A   Clear
6:35 AM 47.3 °F - 45.5 °F 93% 30.26 in 10.0 mi South 5.8 mph - N/A   Clear
6:56 AM 46.4 °F 43.5 °F 44.6 °F 93% 30.26 in 10.0 mi South 5.8 mph - N/A   Clear
7:56 AM 50.0 °F - 48.2 °F 94% 30.26 in 10.0 mi South 5.8 mph - N/A   Clear
8:56 AM 57.2 °F - 48.2 °F 72% 30.25 in 10.0 mi South 9.2 mph - N/A   Clear
9:56 AM 64.4 °F - 50.0 °F 59% 30.27 in 10.0 mi SSW 12.7 mph 18.4 mph N/A   Clear
10:56 AM 69.8 °F - 51.8 °F 53% 30.26 in 10.0 mi South 11.5 mph 23.0 mph N/A   Clear
11:56 AM 71.6 °F - 50.0 °F 46% 30.23 in 10.0 mi South 16.1 mph 28.8 mph N/A   Scattered Clouds
12:56 PM 73.4 °F - 51.8 °F 47% 30.20 in 10.0 mi South 17.3 mph 23.0 mph N/A   Scattered Clouds
1:56 PM 73.4 °F - 51.8 °F 47% 30.18 in 10.0 mi South 16.1 mph 24.2 mph N/A   Mostly Cloudy
2:56 PM 71.6 °F - 53.6 °F 53% 30.17 in 10.0 mi SSW 15.0 mph 23.0 mph N/A   Mostly Cloudy
3:56 PM 71.6 °F - 55.4 °F 57% 30.14 in 10.0 mi South 15.0 mph 20.7 mph N/A   Mostly Cloudy
4:56 PM 69.8 °F - 53.6 °F 56% 30.15 in 10.0 mi South 17.3 mph 21.9 mph N/A   Mostly Cloudy
5:56 PM 64.4 °F - 59.0 °F 83% 30.17 in 3.0 mi SSW 13.8 mph 20.7 mph N/A Rain Light Rain
6:56 PM 62.6 °F - 60.8 °F 94% 30.17 in 7.0 mi South 9.2 mph - N/A   Scattered Clouds
7:56 PM 62.6 °F - 60.8 °F 94% 30.18 in 10.0 mi South 8.1 mph - N/A   Scattered Clouds
10:15 PM 62.1 °F - 61.2 °F 97% 30.17 in 10.0 mi South 8.1 mph - N/A   Overcast
10:35 PM 61.9 °F - 60.8 °F 96% 30.17 in 10.0 mi SSE 8.1 mph - N/A   Overcast
10:55 PM 61.9 °F - 60.8 °F 96% 30.17 in 10.0 mi SSE 6.9 mph - N/A   Overcast
11:15 PM 61.9 °F - 60.8 °F 96% 30.17 in 7.0 mi SSE 5.8 mph - N/A   Drizzle
11:35 PM 62.1 °F - 61.2 °F 97% 30.16 in 7.0 mi SE 5.8 mph - 0.01 in Rain Light Rain
11:55 PM 61.9 °F - 61.0 °F 97% 30.16 in 5.0 mi SSE 5.8 mph - 0.02 in Rain Rain